QPF
0.00 0.00 0.00 0.00 0.00 0.00 0.00 0.00 0.00 0.00 0.01 0.02 0.03 0.03 0.05 0.07 0.06 0.06 0.06 0.06 0.06 0.05 0.04 0.05 0.06 0.07 0.07 0.05 0.03 0.04 0.04 0.04 0.04 0.04 0.04 0.04 0.03 0.04 0.04 0.03 0.03 0.02 0.02
0.00 0.00 0.00 0.00 0.00 0.00 0.00 0.00 0.00 0.00 0.00 0.01 0.03 0.03 0.04 0.07 0.08 0.07 0.07 0.06 0.05 0.05 0.05 0.06 0.05 0.06 0.08 0.08 0.05 0.05 0.04 0.03 0.03 0.04 0.03 0.03 0.03 0.02 0.02 0.02 0.03 0.03 0.03
0.00 0.00 0.00 0.00 0.00 0.00 0.00 0.00 0.00 0.00 0.00 0.01 0.02 0.03 0.03 0.06 0.08 0.07 0.06 0.05 0.05 0.05 0.06 0.07 0.08 0.08 0.08 0.09 0.08 0.06 0.05 0.04 0.04 0.04 0.04 0.03 0.03 0.02 0.02 0.02 0.03 0.03 0.03
0.00 0.00 0.00 0.00 0.00 0.00 0.00 0.00 0.00 0.00 0.01 0.01 0.01 0.01 0.02 0.03 0.06 0.07 0.05 0.04 0.04 0.04 0.05 0.05 0.06 0.07 0.09 0.09 0.08 0.08 0.07 0.07 0.06 0.05 0.05 0.05 0.05 0.05 0.05 0.04 0.05 0.05 0.04
0.00 0.00 0.00 0.00 0.00 0.00 0.00 0.00 0.00 0.00 0.00 0.01 0.01 0.01 0.01 0.02 0.04 0.06 0.06 0.04 0.03 0.04 0.04 0.05 0.05 0.05 0.06 0.08 0.09 0.08 0.08 0.08 0.09 0.08 0.06 0.05 0.05 0.05 0.05 0.06 0.07 0.08 0.08
0.00 0.00 0.00 0.00 0.00 0.00 0.00 0.00 0.01 0.01 0.01 0.01 0.01 0.01 0.01 0.02 0.03 0.05 0.06 0.06 0.04 0.03 0.03 0.04 0.05 0.06 0.07 0.06 0.07 0.09 0.09 0.09 0.09 0.09 0.08 0.07 0.06 0.04 0.03 0.04 0.05 0.08 0.10
0.01 0.01 0.01 0.01 0.01 0.01 0.01 0.01 0.01 0.01 0.01 0.02 0.02 0.02 0.01 0.02 0.02 0.04 0.05 0.06 0.06 0.04 0.02 0.03 0.04 0.05 0.07 0.08 0.07 0.07 0.08 0.09 0.09 0.10 0.09 0.08 0.07 0.07 0.07 0.05 0.05 0.06 0.08
0.00 0.00 0.00 0.00 0.00 0.00 0.00 0.00 0.00 0.00 0.01 0.01 0.01 0.02 0.02 0.02 0.02 0.03 0.05 0.05 0.07 0.06 0.03 0.02 0.02 0.03 0.04 0.06 0.07 0.07 0.07 0.08 0.07 0.07 0.09 0.09 0.08 0.07 0.07 0.07 0.06 0.06 0.07
0.00 0.00 0.00 0.00 0.00 0.00 0.00 0.00 0.00 0.01 0.01 0.01 0.01 0.01 0.01 0.02 0.03 0.03 0.04 0.04 0.05 0.06 0.06 0.04 0.03 0.02 0.03 0.05 0.05 0.05 0.05 0.06 0.06 0.06 0.06 0.06 0.07 0.08 0.07 0.06 0.05 0.05 0.06
0.00 0.00 0.00 0.00 0.00 0.00 0.00 0.00 0.01 0.01 0.01 0.01 0.02 0.02 0.01 0.02 0.03 0.03 0.04 0.05 0.05 0.04 0.04 0.05 0.05 0.04 0.03 0.03 0.04 0.04 0.05 0.05 0.05 0.05 0.06 0.05 0.05 0.06 0.07 0.07 0.06 0.05 0.04
0.00 0.00 0.00 0.01 0.01 0.01 0.01 0.01 0.01 0.01 0.01 0.01 0.02 0.02 0.02 0.02 0.02 0.02 0.03 0.04 0.05 0.05 0.04 0.04 0.05 0.05 0.05 0.04 0.04 0.04 0.04 0.05 0.05 0.05 0.05 0.05 0.04 0.04 0.05 0.06 0.06 0.06 0.05
0.00 0.00 0.00 0.01 0.02 0.02 0.02 0.02 0.02 0.02 0.02 0.02 0.02 0.02 0.03 0.03 0.03 0.03 0.04 0.04 0.04 0.05 0.06 0.05 0.05 0.05 0.05 0.05 0.05 0.05 0.04 0.04 0.05 0.05 0.04 0.04 0.05 0.05 0.05 0.04 0.04 0.05 0.05
0.00 0.00 0.00 0.01 0.02 0.02 0.03 0.03 0.04 0.04 0.04 0.04 0.03 0.03 0.04 0.04 0.05 0.05 0.05 0.06 0.05 0.07 0.07 0.07 0.07 0.06 0.05 0.04 0.04 0.03 0.04 0.04 0.04 0.05 0.04 0.04 0.04 0.04 0.04 0.05 0.05 0.05 0.04
0.00 0.00 0.00 0.01 0.02 0.02 0.03 0.04 0.04 0.04 0.05 0.06 0.05 0.05 0.05 0.05 0.06 0.06 0.06 0.06 0.06 0.07 0.07 0.07 0.07 0.07 0.05 0.05 0.04 0.03 0.03 0.03 0.03 0.03 0.03 0.03 0.03 0.03 0.03 0.03 0.03 0.04 0.05
0.00 0.00 0.00 0.01 0.01 0.02 0.02 0.02 0.03 0.04 0.04 0.05 0.06 0.06 0.06 0.06 0.06 0.06 0.07 0.07 0.06 0.06 0.06 0.07 0.07 0.07 0.06 0.05 0.04 0.03 0.03 0.02 0.02 0.02 0.02 0.02 0.02 0.03 0.03 0.02 0.03 0.03 0.04
0.00 0.00 0.00 0.01 0.01 0.01 0.01 0.02 0.02 0.02 0.03 0.04 0.05 0.05 0.06 0.05 0.05 0.05 0.06 0.05 0.05 0.05 0.05 0.06 0.06 0.05 0.05 0.04 0.04 0.03 0.03 0.02 0.02 0.02 0.01 0.01 0.01 0.01 0.02 0.02 0.02 0.03 0.03
0.00 0.00 0.00 0.00 0.01 0.01 0.01 0.02 0.02 0.02 0.03 0.02 0.03 0.04 0.04 0.04 0.04 0.04 0.04 0.04 0.04 0.04 0.05 0.05 0.05 0.04 0.03 0.03 0.03 0.03 0.02 0.02 0.02 0.01 0.01 0.01 0.01 0.01 0.01 0.01 0.01 0.02 0.03
0.01 0.01 0.00 0.00 0.01 0.01 0.02 0.02 0.02 0.02 0.02 0.02 0.02 0.03 0.03 0.04 0.04 0.04 0.04 0.03 0.03 0.03 0.04 0.04 0.04 0.04 0.04 0.03 0.02 0.02 0.02 0.02 0.02 0.01 0.01 0.01 0.01 0.01 0.01 0.01 0.01 0.01 0.02
0.02 0.01 0.00 0.00 0.00 0.01 0.02 0.03 0.03 0.03 0.02 0.01 0.02 0.02 0.02 0.03 0.03 0.03 0.03 0.03 0.03 0.03 0.03 0.03 0.03 0.03 0.03 0.04 0.03 0.03 0.02 0.03 0.03 0.03 0.03 0.02 0.02 0.02 0.01 0.01 0.01 0.01 0.01
0.02 0.02 0.01 0.00 0.01 0.00 0.01 0.01 0.03 0.03 0.03 0.02 0.02 0.02 0.02 0.02 0.02 0.03 0.03 0.03 0.03 0.03 0.03 0.03 0.02 0.02 0.01 0.02 0.02 0.02 0.02 0.02 0.02 0.02 0.03 0.04 0.03 0.03 0.02 0.02 0.01 0.01 0.01
0.01 0.02 0.01 0.01 0.01 0.01 0.01 0.01 0.01 0.02 0.03 0.02 0.02 0.02 0.03 0.03 0.02 0.02 0.03 0.03 0.03 0.03 0.03 0.02 0.02 0.01 0.01 0.01 0.01 0.01 0.01 0.01 0.01 0.02 0.02 0.03 0.03 0.03 0.03 0.02 0.01 0.01 0.01
0.02 0.02 0.02 0.02 0.02 0.01 0.01 0.01 0.01 0.01 0.02 0.02 0.02 0.03 0.03 0.04 0.03 0.03 0.03 0.03 0.04 0.03 0.02 0.02 0.02 0.01 0.01 0.01 0.00 0.01 0.01 0.01 0.01 0.01 0.02 0.02 0.02 0.02 0.02 0.02 0.02 0.02 0.02
0.02 0.04 0.03 0.03 0.03 0.03 0.02 0.02 0.02 0.02 0.02 0.02 0.02 0.03 0.03 0.04 0.04 0.04 0.03 0.03 0.03 0.03 0.02 0.02 0.02 0.01 0.01 0.00 0.00 0.00 0.00 0.01 0.01 0.01 0.01 0.01 0.01 0.01 0.01 0.01 0.01 0.01 0.01
0.01 0.02 0.04 0.04 0.04 0.03 0.02 0.02 0.02 0.02 0.02 0.02 0.03 0.03 0.04 0.04 0.04 0.04 0.04 0.04 0.03 0.03 0.02 0.02 0.01 0.01 0.01 0.01 0.00 0.00 0.00 0.01 0.01 0.01 0.01 0.01 0.01 0.01 0.01 0.01 0.01 0.01 0.01
0.02 0.02 0.03 0.04 0.04 0.03 0.02 0.02 0.02 0.02 0.02 0.02 0.03 0.03 0.04 0.05 0.05 0.04 0.04 0.05 0.04 0.04 0.03 0.02 0.01 0.01 0.01 0.01 0.01 0.00 0.00 0.01 0.01 0.01 0.01 0.01 0.01 0.01 0.01 0.01 0.01 0.01 0.02
0.02 0.02 0.02 0.03 0.04 0.03 0.02 0.01 0.02 0.02 0.02 0.02 0.03 0.03 0.03 0.04 0.05 0.04 0.04 0.04 0.04 0.03 0.04 0.04 0.03 0.02 0.01 0.01 0.01 0.01 0.01 0.01 0.01 0.01 0.01 0.01 0.01 0.01 0.01 0.01 0.01 0.01 0.02
MSLP
1005.40 1005.42 1005.46 1005.50 1005.54 1005.60 1005.72 1005.91 1006.19 1006.57 1007.01 1007.51 1008.03 1008.55 1009.07 1009.60 1010.14 1010.71 1011.35 1012.07 1012.86 1013.72 1014.64 1015.57 1016.51 1017.41 1018.27 1019.07 1019.83 1020.54 1021.23 1021.91 1022.57 1023.21 1023.84 1024.42 1024.96 1025.42 1025.81 1026.10 1026.31 1026.44 1026.49
1004.83 1004.93 1005.02 1005.08 1005.11 1005.14 1005.20 1005.33 1005.57 1005.91 1006.34 1006.84 1007.38 1007.94 1008.49 1009.03 1009.59 1010.17 1010.81 1011.52 1012.32 1013.20 1014.13 1015.09 1016.04 1016.96 1017.82 1018.62 1019.35 1020.05 1020.73 1021.40 1022.09 1022.79 1023.50 1024.20 1024.87 1025.48 1026.01 1026.45 1026.78 1027.01 1027.14
1004.34 1004.51 1004.64 1004.72 1004.73 1004.72 1004.73 1004.81 1005.00 1005.32 1005.74 1006.26 1006.83 1007.42 1008.00 1008.57 1009.13 1009.72 1010.35 1011.06 1011.85 1012.72 1013.66 1014.63 1015.58 1016.49 1017.34 1018.11 1018.82 1019.48 1020.13 1020.79 1021.49 1022.23 1023.01 1023.81 1024.60 1025.35 1026.03 1026.61 1027.07 1027.42 1027.65
1003.89 1004.10 1004.26 1004.34 1004.34 1004.29 1004.26 1004.30 1004.45 1004.75 1005.19 1005.72 1006.33 1006.96 1007.57 1008.17 1008.75 1009.34 1009.97 1010.67 1011.45 1012.32 1013.25 1014.21 1015.16 1016.07 1016.89 1017.64 1018.32 1018.94 1019.56 1020.20 1020.89 1021.64 1022.46 1023.32 1024.20 1025.06 1025.86 1026.56 1027.15 1027.62 1027.95
1003.44 1003.69 1003.86 1003.93 1003.90 1003.81 1003.74 1003.74 1003.88 1004.18 1004.63 1005.20 1005.85 1006.52 1007.17 1007.80 1008.40 1009.00 1009.64 1010.33 1011.11 1011.97 1012.90 1013.87 1014.82 1015.73 1016.55 1017.28 1017.94 1018.54 1019.12 1019.73 1020.40 1021.14 1021.95 1022.83 1023.75 1024.66 1025.53 1026.32 1027.01 1027.58 1028.03
1003.04 1003.28 1003.44 1003.48 1003.41 1003.28 1003.17 1003.15 1003.28 1003.58 1004.06 1004.66 1005.35 1006.06 1006.76 1007.43 1008.05 1008.67 1009.31 1010.01 1010.80 1011.67 1012.62 1013.60 1014.58 1015.50 1016.35 1017.10 1017.76 1018.35 1018.91 1019.48 1020.11 1020.80 1021.58 1022.42 1023.31 1024.22 1025.11 1025.94 1026.70 1027.36 1027.91
1002.72 1002.94 1003.05 1003.04 1002.92 1002.74 1002.59 1002.55 1002.66 1002.97 1003.46 1004.10 1004.82 1005.57 1006.31 1007.01 1007.67 1008.31 1008.97 1009.69 1010.50 1011.40 1012.37 1013.40 1014.43 1015.40 1016.30 1017.09 1017.78 1018.39 1018.95 1019.49 1020.07 1020.70 1021.40 1022.16 1022.99 1023.84 1024.69 1025.52 1026.30 1027.01 1027.64
1002.53 1002.70 1002.75 1002.67 1002.48 1002.25 1002.06 1001.98 1002.08 1002.39 1002.88 1003.53 1004.28 1005.05 1005.82 1006.55 1007.23 1007.90 1008.59 1009.35 1010.19 1011.13 1012.16 1013.25 1014.35 1015.40 1016.38 1017.24 1017.99 1018.64 1019.21 1019.75 1020.28 1020.84 1021.45 1022.12 1022.84 1023.59 1024.37 1025.16 1025.93 1026.66 1027.35
1002.51 1002.61 1002.59 1002.43 1002.17 1001.89 1001.65 1001.53 1001.61 1001.90 1002.38 1003.02 1003.76 1004.54 1005.32 1006.06 1006.77 1007.47 1008.19 1008.98 1009.87 1010.87 1011.96 1013.12 1014.30 1015.45 1016.52 1017.48 1018.32 1019.03 1019.65 1020.20 1020.71 1021.21 1021.74 1022.30 1022.91 1023.56 1024.25 1024.96 1025.69 1026.42 1027.13
1002.66 1002.68 1002.57 1002.34 1002.02 1001.69 1001.41 1001.26 1001.31 1001.56 1002.02 1002.63 1003.34 1004.11 1004.87 1005.61 1006.32 1007.04 1007.79 1008.62 1009.56 1010.61 1011.76 1013.00 1014.26 1015.50 1016.68 1017.74 1018.68 1019.48 1020.16 1020.75 1021.27 1021.75 1022.22 1022.71 1023.22 1023.78 1024.37 1025.01 1025.68 1026.37 1027.07
1002.94 1002.87 1002.70 1002.41 1002.04 1001.67 1001.37 1001.20 1001.23 1001.45 1001.86 1002.42 1003.09 1003.81 1004.54 1005.26 1005.97 1006.69 1007.47 1008.32 1009.29 1010.38 1011.59 1012.88 1014.21 1015.53 1016.79 1017.96 1019.00 1019.90 1020.67 1021.32 1021.88 1022.38 1022.84 1023.29 1023.75 1024.23 1024.75 1025.32 1025.93 1026.58 1027.24
1003.24 1003.12 1002.89 1002.57 1002.20 1001.83 1001.53 1001.36 1001.37 1001.56 1001.93 1002.44 1003.05 1003.72 1004.40 1005.08 1005.77 1006.49 1007.27 1008.14 1009.12 1010.23 1011.46 1012.79 1014.16 1015.53 1016.86 1018.10 1019.23 1020.22 1021.09 1021.83 1022.47 1023.02 1023.52 1023.98 1024.42 1024.87 1025.34 1025.85 1026.40 1026.99 1027.60
1003.51 1003.34 1003.10 1002.79 1002.44 1002.11 1001.84 1001.70 1001.72 1001.90 1002.24 1002.70 1003.25 1003.86 1004.49 1005.13 1005.80 1006.50 1007.27 1008.14 1009.12 1010.23 1011.45 1012.77 1014.14 1015.52 1016.88 1018.17 1019.36 1020.44 1021.40 1022.24 1022.97 1023.61 1024.17 1024.67 1025.14 1025.59 1026.05 1026.52 1027.02 1027.54 1028.08
1003.67 1003.50 1003.27 1003.00 1002.71 1002.45 1002.26 1002.18 1002.23 1002.42 1002.75 1003.18 1003.68 1004.24 1004.83 1005.43 1006.07 1006.76 1007.51 1008.36 1009.33 1010.41 1011.59 1012.88 1014.21 1015.57 1016.91 1018.21 1019.44 1020.57 1021.61 1022.54 1023.36 1024.09 1024.74 1025.31 1025.83 1026.31 1026.76 1027.20 1027.66 1028.11 1028.58
1003.73 1003.56 1003.38 1003.18 1002.99 1002.83 1002.74 1002.74 1002.85 1003.08 1003.42 1003.83 1004.32 1004.84 1005.40 1005.98 1006.60 1007.28 1008.02 1008.85 1009.78 1010.82 1011.95 1013.16 1014.43 1015.73 1017.02 1018.29 1019.52 1020.67 1021.75 1022.75 1023.65 1024.47 1025.20 1025.84 1026.41 1026.92 1027.38 1027.81 1028.21 1028.61 1028.99
1003.71 1003.58 1003.45 1003.34 1003.26 1003.22 1003.24 1003.35 1003.54 1003.83 1004.19 1004.62 1005.10 1005.62 1006.17 1006.75 1007.37 1008.03 1008.77 1009.58 1010.48 1011.46 1012.53 1013.66 1014.84 1016.05 1017.27 1018.47 1019.66 1020.80 1021.89 1022.92 1023.88 1024.75 1025.54 1026.24 1026.85 1027.38 1027.84 1028.25 1028.62 1028.95 1029.26
1003.68 1003.59 1003.54 1003.52 1003.55 1003.63 1003.77 1003.98 1004.26 1004.62 1005.03 1005.49 1005.99 1006.52 1007.08 1007.67 1008.30 1008.98 1009.72 1010.52 1011.39 1012.33 1013.32 1014.37 1015.45 1016.56 1017.68 1018.80 1019.91 1021.01 1022.08 1023.11 1024.07 1024.97 1025.79 1026.51 1027.14 1027.68 1028.13 1028.51 1028.83 1029.11 1029.35
1003.72 1003.68 1003.70 1003.77 1003.90 1004.09 1004.34 1004.64 1005.01 1005.43 1005.89 1006.39 1006.92 1007.48 1008.06 1008.69 1009.35 1010.05 1010.80 1011.60 1012.45 1013.35 1014.28 1015.24 1016.23 1017.24 1018.26 1019.29 1020.32 1021.35 1022.36 1023.35 1024.29 1025.18 1025.99 1026.70 1027.32 1027.84 1028.27 1028.61 1028.89 1029.11 1029.30
1003.86 1003.87 1003.96 1004.11 1004.33 1004.61 1004.94 1005.33 1005.76 1006.23 1006.74 1007.28 1007.85 1008.44 1009.07 1009.72 1010.42 1011.15 1011.93 1012.74 1013.58 1014.44 1015.33 1016.23 1017.13 1018.05 1018.97 1019.90 1020.85 1021.79 1022.74 1023.67 1024.56 1025.40 1026.17 1026.85 1027.44 1027.92 1028.31 1028.61 1028.84 1029.02 1029.16
1004.09 1004.17 1004.32 1004.54 1004.83 1005.18 1005.58 1006.03 1006.51 1007.03 1007.57 1008.15 1008.74 1009.37 1010.03 1010.72 1011.46 1012.22 1013.02 1013.85 1014.68 1015.53 1016.38 1017.23 1018.07 1018.91 1019.75 1020.59 1021.45 1022.32 1023.19 1024.05 1024.88 1025.66 1026.37 1027.00 1027.54 1027.98 1028.32 1028.58 1028.77 1028.91 1029.02
1004.39 1004.52 1004.74 1005.03 1005.38 1005.79 1006.24 1006.73 1007.25 1007.80 1008.37 1008.96 1009.59 1010.24 1010.93 1011.66 1012.42 1013.22 1014.04 1014.87 1015.71 1016.55 1017.37 1018.17 1018.96 1019.74 1020.52 1021.30 1022.08 1022.87 1023.67 1024.46 1025.22 1025.94 1026.59 1027.17 1027.65 1028.05 1028.35 1028.57 1028.72 1028.83 1028.91
1004.67 1004.88 1005.17 1005.52 1005.93 1006.39 1006.89 1007.41 1007.96 1008.53 1009.12 1009.73 1010.37 1011.05 1011.76 1012.51 1013.30 1014.12 1014.95 1015.79 1016.63 1017.45 1018.25 1019.03 1019.78 1020.51 1021.23 1021.95 1022.67 1023.40 1024.13 1024.86 1025.56 1026.21 1026.81 1027.34 1027.78 1028.13 1028.40 1028.60 1028.73 1028.81 1028.87
1004.90 1005.19 1005.56 1005.98 1006.46 1006.97 1007.51 1008.06 1008.64 1009.23 1009.84 1010.46 1011.12 1011.81 1012.54 1013.31 1014.11 1014.94 1015.78 1016.62 1017.45 1018.26 1019.03 1019.78 1020.49 1021.18 1021.85 1022.52 1023.19 1023.87 1024.54 1025.21 1025.85 1026.46 1027.01 1027.50 1027.91 1028.23 1028.48 1028.65 1028.77 1028.83 1028.87
1005.09 1005.47 1005.91 1006.41 1006.95 1007.51 1008.10 1008.69 1009.29 1009.91 1010.54 1011.18 1011.86 1012.57 1013.31 1014.09 1014.90 1015.73 1016.57 1017.40 1018.21 1019.00 1019.74 1020.45 1021.12 1021.77 1022.40 1023.02 1023.64 1024.26 1024.88 1025.49 1026.09 1026.65 1027.16 1027.62 1028.00 1028.31 1028.54 1028.70 1028.81 1028.87 1028.89
1005.30 1005.76 1006.28 1006.85 1007.45 1008.07 1008.69 1009.33 1009.96 1010.61 1011.26 1011.93 1012.63 1013.36 1014.11 1014.91 1015.72 1016.55 1017.38 1018.19 1018.98 1019.73 1020.44 1021.11 1021.73 1022.33 1022.90 1023.46 1024.03 1024.59 1025.15 1025.71 1026.26 1026.78 1027.26 1027.68 1028.04 1028.34 1028.56 1028.72 1028.82 1028.86 1028.87
1005.66 1006.18 1006.76 1007.39 1008.03 1008.70 1009.37 1010.04 1010.71 1011.38 1012.06 1012.76 1013.48 1014.23 1015.01 1015.81 1016.63 1017.45 1018.26 1019.05 1019.81 1020.52 1021.19 1021.80 1022.36 1022.90 1023.41 1023.91 1024.40 1024.90 1025.40 1025.89 1026.38 1026.85 1027.29 1027.68 1028.02 1028.30 1028.51 1028.66 1028.75 1028.79 1028.78
Thickness
5614 5614 5615 5616 5616 5616 5617 5618 5619 5620 5620 5619 5619 5620 5620 5622 5623 5624 5625 5626 5628 5630 5632 5633 5634 5636 5637 5637 5637 5636 5636 5634 5634 5633 5631 5632 5633 5635 5636 5637 5638 5639 5639
5604 5606 5607 5607 5608 5608 5609 5610 5612 5612 5613 5613 5613 5613 5613 5613 5614 5615 5616 5618 5620 5622 5625 5626 5626 5628 5629 5629 5630 5631 5629 5628 5628 5628 5625 5623 5623 5626 5629 5630 5630 5631 5631
5597 5598 5598 5599 5599 5600 5602 5604 5604 5605 5605 5605 5605 5604 5603 5603 5604 5605 5607 5609 5611 5614 5616 5618 5619 5619 5621 5622 5623 5624 5624 5622 5621 5622 5622 5619 5619 5618 5619 5621 5622 5622 5623
5591 5590 5590 5591 5592 5593 5594 5595 5596 5597 5597 5597 5597 5597 5597 5597 5597 5597 5598 5600 5603 5604 5606 5609 5610 5611 5613 5614 5615 5617 5618 5617 5615 5614 5615 5616 5618 5614 5612 5612 5614 5614 5615
5581 5582 5582 5583 5584 5585 5585 5586 5587 5588 5588 5589 5589 5589 5589 5590 5588 5588 5589 5590 5593 5595 5597 5599 5600 5602 5603 5605 5607 5608 5610 5611 5610 5609 5608 5607 5608 5609 5608 5606 5604 5605 5606
5570 5571 5572 5572 5573 5574 5575 5576 5577 5579 5579 5580 5581 5581 5581 5580 5579 5579 5579 5580 5582 5585 5587 5588 5590 5591 5594 5595 5598 5599 5601 5603 5603 5603 5603 5603 5602 5601 5601 5599 5597 5596 5597
5558 5559 5560 5561 5563 5564 5566 5567 5569 5570 5570 5571 5572 5572 5571 5571 5571 5571 5571 5571 5572 5573 5576 5578 5579 5581 5583 5586 5588 5589 5591 5593 5595 5595 5596 5597 5597 5597 5596 5594 5591 5588 5587
5544 5547 5549 5551 5553 5555 5557 5558 5560 5561 5562 5562 5562 5562 5562 5562 5562 5563 5563 5562 5563 5565 5566 5568 5570 5571 5573 5575 5577 5579 5581 5583 5584 5586 5586 5588 5588 5589 5590 5588 5585 5581 5578
5532 5535 5538 5540 5543 5544 5547 5548 5550 5552 5552 5552 5552 5552 5551 5552 5552 5552 5553 5553 5554 5555 5557 5558 5560 5561 5562 5564 5566 5568 5570 5571 5573 5575 5576 5577 5577 5578 5580 5581 5580 5578 5574
5519 5522 5526 5529 5532 5534 5536 5538 5540 5542 5543 5543 5543 5543 5542 5542 5542 5542 5542 5543 5544 5546 5547 5548 5549 5551 5552 5553 5555 5557 5559 5560 5561 5563 5565 5565 5565 5566 5568 5570 5570 5570 5568
5506 5510 5514 5517 5520 5522 5524 5526 5528 5530 5531 5532 5532 5533 5532 5532 5531 5532 5533 5534 5535 5536 5537 5539 5539 5540 5540 5542 5544 5545 5547 5548 5549 5551 5553 5554 5554 5555 5557 5558 5559 5558 5557
5495 5497 5501 5504 5508 5510 5512 5514 5516 5519 5521 5522 5522 5522 5522 5522 5521 5522 5523 5524 5525 5527 5528 5529 5529 5530 5530 5531 5533 5534 5535 5537 5537 5538 5540 5542 5544 5545 5545 5546 5547 5547 5547
5482 5486 5489 5492 5495 5498 5500 5502 5505 5507 5510 5511 5511 5512 5512 5512 5512 5512 5513 5513 5515 5516 5518 5519 5520 5521 5521 5522 5523 5524 5525 5526 5526 5527 5529 5531 5532 5533 5534 5535 5535 5535 5535
5469 5472 5476 5479 5483 5486 5488 5491 5493 5495 5498 5499 5500 5501 5501 5502 5502 5503 5503 5503 5504 5505 5507 5508 5509 5510 5511 5512 5513 5514 5514 5514 5514 5515 5517 5519 5520 5522 5523 5523 5524 5524 5523
5457 5460 5463 5466 5470 5474 5477 5480 5482 5484 5486 5487 5488 5489 5490 5490 5491 5491 5492 5492 5493 5494 5495 5495 5496 5497 5500 5501 5502 5502 5502 5502 5503 5503 5505 5507 5509 5511 5512 5513 5513 5512 5511
5445 5449 5452 5455 5459 5462 5466 5469 5471 5473 5474 5476 5477 5477 5477 5478 5479 5479 5480 5480 5481 5482 5482 5483 5484 5485 5488 5490 5491 5491 5491 5491 5492 5492 5493 5495 5497 5499 5501 5501 5501 5501 5500
5434 5437 5440 5444 5447 5451 5454 5457 5459 5461 5462 5464 5465 5466 5466 5467 5466 5467 5467 5468 5468 5469 5469 5469 5471 5472 5474 5477 5479 5479 5480 5480 5481 5481 5482 5483 5485 5486 5487 5488 5489 5488 5488
5422 5425 5428 5432 5436 5439 5442 5445 5447 5449 5451 5452 5453 5454 5454 5454 5454 5454 5454 5455 5456 5456 5456 5456 5457 5459 5461 5464 5466 5467 5467 5468 5469 5469 5470 5471 5472 5473 5474 5475 5475 5474 5474
5408 5412 5416 5420 5424 5427 5431 5434 5435 5437 5438 5440 5441 5442 5443 5443 5442 5442 5442 5443 5443 5444 5443 5444 5445 5446 5448 5450 5453 5454 5454 5455 5456 5457 5458 5458 5459 5462 5462 5462 5461 5461 5460
5397 5401 5405 5408 5412 5416 5419 5422 5423 5425 5427 5428 5430 5431 5431 5431 5431 5431 5431 5431 5432 5432 5432 5432 5433 5434 5435 5437 5440 5442 5443 5443 5444 5444 5445 5447 5447 5448 5448 5447 5447 5447 5447
5387 5392 5395 5398 5401 5404 5407 5409 5411 5412 5415 5417 5418 5419 5420 5420 5420 5419 5420 5420 5420 5420 5419 5420 5421 5421 5423 5426 5428 5430 5430 5431 5431 5432 5433 5434 5435 5435 5435 5435 5434 5434 5434
5377 5381 5384 5387 5390 5392 5395 5397 5398 5400 5402 5404 5406 5407 5408 5408 5408 5408 5408 5408 5407 5407 5406 5407 5408 5409 5411 5413 5416 5418 5419 5420 5420 5421 5422 5423 5423 5423 5422 5422 5421 5420 5419
5365 5369 5372 5375 5378 5380 5383 5385 5386 5388 5390 5391 5393 5395 5395 5395 5396 5397 5397 5397 5396 5396 5396 5396 5396 5397 5399 5401 5404 5406 5407 5408 5409 5409 5410 5411 5411 5410 5409 5408 5407 5405 5403
5351 5356 5360 5363 5365 5367 5370 5372 5374 5376 5378 5380 5381 5382 5383 5384 5385 5385 5386 5386 5387 5386 5386 5386 5386 5387 5388 5390 5391 5393 5394 5396 5396 5396 5397 5397 5397 5396 5395 5394 5392 5391 5389
5339 5344 5348 5351 5353 5356 5358 5361 5363 5365 5367 5368 5370 5371 5372 5373 5373 5374 5374 5376 5378 5379 5379 5379 5379 5379 5379 5381 5383 5383 5384 5384 5384 5383 5382 5382 5382 5382 5381 5380 5379 5378 5376
5329 5332 5336 5339 5342 5344 5347 5349 5352 5354 5356 5357 5358 5360 5361 5362 5362 5363 5363 5365 5367 5369 5370 5370 5370 5371 5372 5372 5373 5374 5374 5374 5373 5372 5371 5371 5370 5371 5370 5368 5367 5366 5364